Location: Braden Valley Church
(38.0012°N, 88.6106°W)
Time: 06:22:15
(UTC+00:00)

Lacrosse 5 rocket - Pass Details

Date: 08 December 2021
Orbit: 457 x 634 km, 57.0° (Epoch: 16 January)

Event Time Altitude Azimuth Distance (km) Brightness Sun altitude
Rises 23:42:40 0° 323° (NW) 2,626 5.0 -13.1°
Reaches altitude 10° 23:44:53 10° 330° (NNW) 1,766 4.0 -13.5°
Maximum altitude 23:48:42 44° 44° (NE) 766 1.6 -14.2°
Enters shadow 23:51:22 19° 108° (ESE) 1,358 2.8 -14.7°
